Year,Month,Day,Hour,Minute,Value (Times are PST for temperature in C)
2010,07,20,09,59,18.70
2010,07,20,10,00,18.70
2010,07,20,10,01,18.80
2010,07,20,10,02,18.80
2010,07,20,10,03,18.90
2010,07,20,10,04,18.90
2010,07,20,10,05,18.80
2010,07,20,10,06,18.80
2010,07,20,10,07,18.80
2010,07,20,10,08,18.80
2010,07,20,10,09,18.80
2010,07,20,10,10,18.80
2010,07,20,10,11,18.80
2010,07,20,10,12,18.80
2010,07,20,10,13,18.90
2010,07,20,10,14,18.80
2010,07,20,10,15,18.80
2010,07,20,10,16,18.80
2010,07,20,10,17,18.80
2010,07,20,10,18,18.80
2010,07,20,10,19,18.90
2010,07,20,10,20,18.90
2010,07,20,10,21,18.90
2010,07,20,10,22,19.10
2010,07,20,10,23,19.20
2010,07,20,10,24,19.20
2010,07,20,10,25,19.20
2010,07,20,10,26,19.30
2010,07,20,10,27,19.30
2010,07,20,10,28,19.50
2010,07,20,10,29,19.60
2010,07,20,10,30,19.60
2010,07,20,10,31,19.60
2010,07,20,10,32,19.60
2010,07,20,10,33,19.60
2010,07,20,10,34,19.70
2010,07,20,10,35,19.60
2010,07,20,10,36,19.60
2010,07,20,10,37,19.50
2010,07,20,10,38,19.50
2010,07,20,10,39,19.50
2010,07,20,10,40,19.50
2010,07,20,10,41,19.60
2010,07,20,10,42,19.60
2010,07,20,10,43,19.70
2010,07,20,10,44,19.80
2010,07,20,10,45,19.90
2010,07,20,10,46,20.00
2010,07,20,10,47,20.00
2010,07,20,10,48,20.00
2010,07,20,10,49,20.10
2010,07,20,10,50,20.10
2010,07,20,10,51,20.10
2010,07,20,10,52,20.20
2010,07,20,10,53,20.20
2010,07,20,10,54,20.20
2010,07,20,10,55,20.10
2010,07,20,10,56,20.10
2010,07,20,10,57,20.20
2010,07,20,10,58,20.20
2010,07,20,10,59,20.30
2010,07,20,11,00,20.30
2010,07,20,11,01,20.30
2010,07,20,11,02,20.40
2010,07,20,11,03,20.50
2010,07,20,11,04,20.50
2010,07,20,11,05,20.50
2010,07,20,11,06,20.60
2010,07,20,11,07,20.60
2010,07,20,11,08,20.60
2010,07,20,11,09,20.50
2010,07,20,11,10,20.50
2010,07,20,11,11,20.30
2010,07,20,11,12,20.30
2010,07,20,11,13,20.30
2010,07,20,11,14,20.20
2010,07,20,11,15,20.20
2010,07,20,11,16,20.30
2010,07,20,11,17,20.40
2010,07,20,11,18,20.50
2010,07,20,11,19,20.60
2010,07,20,11,20,20.70
2010,07,20,11,21,20.80
2010,07,20,11,22,20.90
2010,07,20,11,23,21.00
2010,07,20,11,24,21.00
2010,07,20,11,25,21.10
2010,07,20,11,26,21.20
2010,07,20,11,27,21.20
2010,07,20,11,28,21.20
2010,07,20,11,29,21.10
2010,07,20,11,30,21.20
2010,07,20,11,31,21.20
2010,07,20,11,32,21.30
2010,07,20,11,33,21.40
2010,07,20,11,34,21.40
2010,07,20,11,35,21.40
2010,07,20,11,36,21.40
2010,07,20,11,37,21.40
2010,07,20,11,38,21.40
2010,07,20,11,39,21.50
2010,07,20,11,40,21.60
2010,07,20,11,41,21.60
2010,07,20,11,42,21.80
2010,07,20,11,43,21.80
2010,07,20,11,44,21.70
2010,07,20,11,45,21.60
2010,07,20,11,46,21.50
2010,07,20,11,47,21.50
2010,07,20,11,48,21.40
2010,07,20,11,49,21.30
2010,07,20,11,50,21.30
2010,07,20,11,51,21.20
2010,07,20,11,52,21.20
2010,07,20,11,53,21.30
2010,07,20,11,54,21.40
2010,07,20,11,55,21.40
2010,07,20,11,56,21.40
2010,07,20,11,57,21.40
2010,07,20,11,58,21.40
2010,07,20,11,59,21.30
2010,07,20,12,00,21.20
2010,07,20,12,01,21.10
2010,07,20,12,02,21.00
2010,07,20,12,03,20.90
2010,07,20,12,04,20.80
2010,07,20,12,05,20.80
2010,07,20,12,06,20.70
2010,07,20,12,07,20.70
2010,07,20,12,08,20.80
2010,07,20,12,09,20.70
2010,07,20,12,10,20.70
2010,07,20,12,11,20.80
2010,07,20,12,12,20.80
2010,07,20,12,13,20.80
2010,07,20,12,14,20.80
2010,07,20,12,15,20.80
2010,07,20,12,16,20.80
2010,07,20,12,17,20.80
2010,07,20,12,18,20.80
2010,07,20,12,19,20.90
2010,07,20,12,20,20.90
2010,07,20,12,21,20.90
2010,07,20,12,22,21.00
2010,07,20,12,23,21.00
2010,07,20,12,24,21.00
2010,07,20,12,25,21.00
2010,07,20,12,26,21.00
2010,07,20,12,27,21.00
2010,07,20,12,28,21.10
2010,07,20,12,29,21.10
2010,07,20,12,30,21.10
2010,07,20,12,31,21.20
2010,07,20,12,32,21.30
2010,07,20,12,33,21.30
2010,07,20,12,34,21.40
2010,07,20,12,35,21.40
2010,07,20,12,36,21.50
2010,07,20,12,37,21.60
2010,07,20,12,38,21.50
2010,07,20,12,39,21.40
2010,07,20,12,40,21.30
2010,07,20,12,41,21.10
2010,07,20,12,42,21.00
2010,07,20,12,43,20.90
2010,07,20,12,44,20.80
2010,07,20,12,45,20.80
2010,07,20,12,46,20.80
2010,07,20,12,47,20.80
2010,07,20,12,48,21.00
2010,07,20,12,49,21.10
2010,07,20,12,50,21.20
2010,07,20,12,51,21.30
2010,07,20,12,52,21.40
2010,07,20,12,53,21.40
2010,07,20,12,54,21.30
2010,07,20,12,55,21.20
2010,07,20,12,56,21.10
2010,07,20,12,57,21.10
2010,07,20,12,58,21.10
2010,07,20,12,59,21.00
2010,07,20,13,00,21.00
2010,07,20,13,01,21.00
2010,07,20,13,02,21.00
2010,07,20,13,03,20.90
2010,07,20,13,04,20.90
2010,07,20,13,05,20.80
2010,07,20,13,06,20.70
2010,07,20,13,07,20.60
2010,07,20,13,08,20.60
2010,07,20,13,09,20.70
2010,07,20,13,10,20.70
2010,07,20,13,11,20.80
2010,07,20,13,12,21.00
2010,07,20,13,13,21.10
2010,07,20,13,14,21.10
2010,07,20,13,15,21.20
2010,07,20,13,16,21.20
2010,07,20,13,17,21.30
2010,07,20,13,18,21.30
2010,07,20,13,19,21.30
2010,07,20,13,20,21.40
2010,07,20,13,21,21.30
2010,07,20,13,22,21.30
2010,07,20,13,23,21.30
2010,07,20,13,24,21.40
2010,07,20,13,25,21.50
2010,07,20,13,26,21.60
2010,07,20,13,27,21.70
2010,07,20,13,28,21.80
2010,07,20,13,29,21.80
2010,07,20,13,30,21.70
2010,07,20,13,31,21.60
2010,07,20,13,32,21.40
2010,07,20,13,33,21.40
2010,07,20,13,34,21.40
2010,07,20,13,35,21.50
2010,07,20,13,36,21.50
2010,07,20,13,37,21.50
2010,07,20,13,38,21.40
2010,07,20,13,39,21.30
2010,07,20,13,40,21.30
2010,07,20,13,41,21.30
2010,07,20,13,42,21.30
2010,07,20,13,43,21.20
2010,07,20,13,44,21.20
2010,07,20,13,45,21.30
2010,07,20,13,46,21.30
2010,07,20,13,47,21.40
2010,07,20,13,48,21.40
2010,07,20,13,49,21.40
2010,07,20,13,50,21.40
2010,07,20,13,51,21.40
2010,07,20,13,52,21.30
2010,07,20,13,53,21.20
2010,07,20,13,54,21.10
2010,07,20,13,55,21.10
2010,07,20,13,56,20.90
2010,07,20,13,57,20.80
2010,07,20,13,58,20.70
2010,07,20,13,59,20.70
2010,07,20,14,00,20.70
2010,07,20,14,01,20.80
2010,07,20,14,02,20.80
2010,07,20,14,03,20.80
2010,07,20,14,04,20.80
2010,07,20,14,05,20.90
2010,07,20,14,06,20.90
2010,07,20,14,07,20.90
2010,07,20,14,08,20.90
2010,07,20,14,09,20.80
2010,07,20,14,10,20.70
2010,07,20,14,11,20.60
2010,07,20,14,12,20.50
2010,07,20,14,13,20.40
2010,07,20,14,14,20.30
2010,07,20,14,15,20.30
2010,07,20,14,16,20.20
2010,07,20,14,17,20.10
2010,07,20,14,18,20.10
2010,07,20,14,19,20.10
2010,07,20,14,20,20.10
2010,07,20,14,21,20.10
2010,07,20,14,22,20.10
2010,07,20,14,23,20.20
2010,07,20,14,24,20.20
2010,07,20,14,25,20.30
2010,07,20,14,26,20.30
2010,07,20,14,27,20.50
2010,07,20,14,28,20.60
2010,07,20,14,29,20.70
2010,07,20,14,30,20.90
2010,07,20,14,31,21.00
2010,07,20,14,32,21.20
2010,07,20,14,33,21.30
2010,07,20,14,34,21.30
2010,07,20,14,35,21.30
2010,07,20,14,36,21.30
2010,07,20,14,37,21.30
2010,07,20,14,38,21.20
2010,07,20,14,39,21.10
2010,07,20,14,40,21.00
2010,07,20,14,41,20.80
2010,07,20,14,42,20.70
2010,07,20,14,43,20.70
2010,07,20,14,44,20.60
2010,07,20,14,45,20.60
2010,07,20,14,46,20.60
2010,07,20,14,47,20.60
2010,07,20,14,48,20.60
2010,07,20,14,49,20.50
2010,07,20,14,50,20.50
2010,07,20,14,51,20.50
2010,07,20,14,52,20.40
2010,07,20,14,53,20.40
2010,07,20,14,54,20.50
2010,07,20,14,55,20.60
2010,07,20,14,56,20.70
2010,07,20,14,57,20.80
2010,07,20,14,58,20.90
2010,07,20,14,59,21.00
2010,07,20,15,00,21.00
2010,07,20,15,01,21.00
2010,07,20,15,02,21.10
2010,07,20,15,03,21.10
2010,07,20,15,04,21.10
2010,07,20,15,05,21.20
2010,07,20,15,06,21.30
2010,07,20,15,07,21.30
2010,07,20,15,08,21.30
2010,07,20,15,09,21.30
2010,07,20,15,10,21.30
2010,07,20,15,11,21.30
2010,07,20,15,12,21.20
2010,07,20,15,13,21.30
2010,07,20,15,14,21.20
2010,07,20,15,15,21.20
2010,07,20,15,16,21.20
2010,07,20,15,17,21.20
2010,07,20,15,18,21.20
2010,07,20,15,19,21.20
2010,07,20,15,20,21.20
2010,07,20,15,21,21.20
2010,07,20,15,22,21.20
2010,07,20,15,23,21.20
2010,07,20,15,24,21.20
2010,07,20,15,25,21.30
2010,07,20,15,26,21.30
2010,07,20,15,27,21.40
2010,07,20,15,28,21.40
2010,07,20,15,29,21.40
2010,07,20,15,30,21.40
2010,07,20,15,31,21.30
2010,07,20,15,32,21.20
2010,07,20,15,33,21.10
2010,07,20,15,34,21.00
2010,07,20,15,35,20.80
2010,07,20,15,36,20.80
2010,07,20,15,37,20.70
2010,07,20,15,38,20.70
2010,07,20,15,39,20.70
2010,07,20,15,40,20.70
2010,07,20,15,41,20.70
2010,07,20,15,42,20.70
2010,07,20,15,43,20.80
2010,07,20,15,44,20.90
2010,07,20,15,45,21.10
2010,07,20,15,46,21.20
2010,07,20,15,47,21.20
2010,07,20,15,48,21.20
2010,07,20,15,49,21.20
2010,07,20,15,50,21.10
2010,07,20,15,51,20.90
2010,07,20,15,52,20.80
2010,07,20,15,53,20.80
2010,07,20,15,54,20.80
2010,07,20,15,55,20.70
2010,07,20,15,56,20.70
2010,07,20,15,57,20.70
2010,07,20,15,58,20.70
2010,07,20,15,59,20.70
2010,07,20,16,00,20.70
2010,07,20,16,01,20.60
2010,07,20,16,02,20.60
2010,07,20,16,03,20.70
2010,07,20,16,04,20.70
2010,07,20,16,05,20.80
2010,07,20,16,06,20.80
2010,07,20,16,07,20.90
2010,07,20,16,08,20.90
2010,07,20,16,09,20.90
2010,07,20,16,10,21.00
2010,07,20,16,11,21.10
2010,07,20,16,12,21.30
2010,07,20,16,13,21.30
2010,07,20,16,14,21.50
2010,07,20,16,15,21.50
2010,07,20,16,16,21.50
2010,07,20,16,17,21.40
2010,07,20,16,18,21.30
2010,07,20,16,19,21.20
2010,07,20,16,20,21.10
2010,07,20,16,21,21.10
2010,07,20,16,22,21.10
2010,07,20,16,23,21.10
2010,07,20,16,24,21.00
2010,07,20,16,25,20.90
2010,07,20,16,26,20.80
2010,07,20,16,27,20.70
2010,07,20,16,28,20.60
2010,07,20,16,29,20.40
2010,07,20,16,30,20.20
2010,07,20,16,31,20.10
2010,07,20,16,32,20.00
2010,07,20,16,33,20.00
2010,07,20,16,34,19.90
2010,07,20,16,35,19.90
2010,07,20,16,36,19.90
2010,07,20,16,37,19.90
2010,07,20,16,38,19.80
2010,07,20,16,39,19.80
2010,07,20,16,40,19.80
2010,07,20,16,41,19.90
2010,07,20,16,42,19.90
2010,07,20,16,43,19.90
2010,07,20,16,44,19.90
2010,07,20,16,45,19.90
2010,07,20,16,46,19.90
2010,07,20,16,47,19.90
2010,07,20,16,48,19.90
2010,07,20,16,49,19.80
2010,07,20,16,50,19.80
2010,07,20,16,51,19.70
2010,07,20,16,52,19.60
2010,07,20,16,53,19.50
2010,07,20,16,54,19.40
2010,07,20,16,55,19.40
2010,07,20,16,56,19.40
2010,07,20,16,57,19.40
2010,07,20,16,58,19.40
2010,07,20,16,59,19.40
2010,07,20,17,00,19.40
2010,07,20,17,01,19.40
2010,07,20,17,02,19.50
2010,07,20,17,03,19.50
2010,07,20,17,04,19.50
2010,07,20,17,05,19.40
2010,07,20,17,06,19.40
2010,07,20,17,07,19.50
2010,07,20,17,08,19.50
2010,07,20,17,09,19.50
2010,07,20,17,10,19.60
2010,07,20,17,11,19.70
2010,07,20,17,12,19.70
2010,07,20,17,13,19.70
2010,07,20,17,14,19.80
2010,07,20,17,15,19.80
2010,07,20,17,16,19.90
2010,07,20,17,17,19.90
2010,07,20,17,18,19.90
2010,07,20,17,19,19.90
2010,07,20,17,20,19.90
2010,07,20,17,21,19.80
2010,07,20,17,22,19.80
2010,07,20,17,23,19.70
2010,07,20,17,24,19.60
2010,07,20,17,25,19.60
2010,07,20,17,26,19.60
2010,07,20,17,27,19.50
2010,07,20,17,28,19.40
2010,07,20,17,29,19.30
2010,07,20,17,30,19.20
2010,07,20,17,31,19.20
2010,07,20,17,32,19.20
2010,07,20,17,33,19.30
2010,07,20,17,34,19.30
2010,07,20,17,35,19.40
2010,07,20,17,36,19.50
2010,07,20,17,37,19.50
2010,07,20,17,38,19.50
2010,07,20,17,39,19.60
2010,07,20,17,40,19.60
2010,07,20,17,41,19.60
2010,07,20,17,42,19.60
2010,07,20,17,43,19.70
2010,07,20,17,44,19.70
2010,07,20,17,45,19.70
2010,07,20,17,46,19.70
2010,07,20,17,47,19.80
2010,07,20,17,48,19.90
2010,07,20,17,49,20.00
2010,07,20,17,50,20.00
2010,07,20,17,51,20.00
2010,07,20,17,52,20.00
2010,07,20,17,53,20.00
2010,07,20,17,54,20.00
2010,07,20,17,55,19.90
2010,07,20,17,56,19.90
2010,07,20,17,57,19.80
2010,07,20,17,58,19.80
2010,07,20,17,59,19.80
2010,07,20,18,00,19.80
2010,07,20,18,01,19.70
2010,07,20,18,02,19.70
2010,07,20,18,03,19.60
2010,07,20,18,04,19.60
2010,07,20,18,05,19.70
2010,07,20,18,06,19.70
2010,07,20,18,07,19.80
2010,07,20,18,08,19.80
2010,07,20,18,09,19.90
2010,07,20,18,10,20.00
2010,07,20,18,11,20.10
2010,07,20,18,12,20.30
2010,07,20,18,13,20.40
2010,07,20,18,14,20.50
2010,07,20,18,15,20.60
2010,07,20,18,16,20.70
2010,07,20,18,17,20.70
2010,07,20,18,18,20.70
2010,07,20,18,19,20.70
2010,07,20,18,20,20.60
2010,07,20,18,21,20.50
2010,07,20,18,22,20.40
2010,07,20,18,23,20.30
2010,07,20,18,24,20.20
2010,07,20,18,25,20.20
2010,07,20,18,26,20.10
2010,07,20,18,27,20.10
2010,07,20,18,28,20.00
2010,07,20,18,29,19.80
2010,07,20,18,30,19.60
2010,07,20,18,31,19.50
2010,07,20,18,32,19.30
2010,07,20,18,33,19.20
2010,07,20,18,34,19.10
2010,07,20,18,35,19.10
2010,07,20,18,36,19.00
2010,07,20,18,37,19.00
2010,07,20,18,38,18.90
2010,07,20,18,39,18.80
2010,07,20,18,40,18.90
2010,07,20,18,41,18.80
2010,07,20,18,42,18.80
2010,07,20,18,43,18.80
2010,07,20,18,44,18.80
2010,07,20,18,45,18.70
2010,07,20,18,46,18.70
2010,07,20,18,47,18.70
2010,07,20,18,48,18.60
2010,07,20,18,49,18.60
2010,07,20,18,50,18.50
2010,07,20,18,51,18.50
2010,07,20,18,52,18.50
2010,07,20,18,53,18.50
2010,07,20,18,54,18.50
2010,07,20,18,55,18.50
2010,07,20,18,56,18.50
2010,07,20,18,57,18.50
2010,07,20,18,58,18.50
2010,07,20,18,59,18.50
2010,07,20,19,00,18.50
2010,07,20,19,01,18.50
2010,07,20,19,02,18.50
